This is the latest recevied weather packets stored in our database for station/object KY4OP-13. If no packets are shown the sender has not sent any weather packets the latest 10 day(s).
| Time | Temp. | Humidity | Pressure | Rain* | Wind** | Luminosity | Snow |
|---|---|---|---|---|---|---|---|
| 1777807666 | 5° C | 65% | 1019.8 hPa | 0 mm | - | - | - |
| 1777807364 | 4.44° C | 67% | 1019.6 hPa | 0 mm | - | - | - |
| 1777807059 | 4.44° C | 69% | 1019.7 hPa | 0 mm | - | - | - |
| 1777806756 | 4.44° C | 70% | 1019.6 hPa | 0 mm | - | - | - |
| 1777806452 | 4.44° C | 68% | 1019.5 hPa | 0 mm | - | - | - |
| 1777806149 | 4.44° C | 66% | 1019.4 hPa | 0 mm | - | - | - |
| 1777805846 | 4.44° C | 69% | 1019.5 hPa | 0 mm | - | - | - |
| 1777805543 | 4.44° C | 67% | 1019.3 hPa | 0 mm | - | - | - |
| 1777805240 | 3.89° C | 67% | 1019.2 hPa | 0 mm | - | - | - |
| 1777804938 | 3.89° C | 68% | 1019.1 hPa | 0 mm | - | - | - |
| 1777804636 | 3.89° C | 69% | 1018.8 hPa | 0 mm | - | - | - |
| 1777804334 | 3.33° C | 71% | 1018.7 hPa | 0 mm | - | - | - |
| 1777804030 | 3.33° C | 72% | 1018.7 hPa | 0 mm | - | - | - |
| 1777803727 | 3.33° C | 74% | 1018.7 hPa | 0 mm | - | - | - |
| 1777803422 | 3.33° C | 73% | 1018.6 hPa | 0 mm | - | - | - |
| 1777803120 | 2.78° C | 74% | 1018.5 hPa | 0 mm | - | - | - |
| 1777802817 | 2.78° C | 77% | 1018.3 hPa | 0 mm | - | - | - |
| 1777802515 | 3.33° C | 76% | 1018.4 hPa | 0 mm | - | - | - |
| 1777802213 | 3.33° C | 74% | 1018.4 hPa | 0 mm | - | - | - |
| 1777801911 | 3.89° C | 72% | 1018.3 hPa | 0 mm | - | - | - |
| 1777801608 | 3.89° C | 70% | 1018 hPa | 0 mm | - | - | - |
| 1777801300 | 4.44° C | 70% | 1018 hPa | 0 mm | - | - | - |
| 1777800996 | 5° C | 68% | 1017.9 hPa | 0 mm | - | - | - |
| 1777800693 | 5.56° C | 64% | 1017.9 hPa | 0 mm | - | - | - |
| 1777800388 | 5.56° C | 61% | 1018 hPa | 0 mm | - | - | - |
* Rain latest hour (hover to see other rain measurements)
** Current wind speed in m/s (hover to see current wind gust speed)